Location: Cahas Mountain Overlook
(37.0833°N, 80.1000°W)
Time: 13:47:54
(UTC-05:00)

SR - Pass Details

Date: 13 December 2023
Orbit: 574 x 867 km, 66.7° (Epoch: 29 February)

Event Time Altitude Azimuth Distance (km) Brightness Sun altitude
Rises 20:18:03 0° 311° (NW) 3,378 ? -37.8°
Reaches altitude 10° 20:21:53 10° 286° (WNW) 2,385 ? -38.6°
Maximum altitude 20:24:22 13° 259° (WSW) 2,121 ? -39.1°
Drops below altitude 10° 20:26:47 10° 231° (SW) 2,295 ? -39.6°
Sets 20:30:21 0° 205° (SSW) 3,142 ? -40.3°
